QPF
0.00 0.00 0.00 0.00 0.01 0.01 0.00 0.00 0.00 0.00 0.00 0.00 0.00 0.00 0.00 0.00 0.00 0.00 0.00 0.00 0.00 0.00
0.00 0.00 0.00 0.00 0.00 0.01 0.00 0.00 0.00 0.04 0.06 0.03 0.00 0.00 0.00 0.00 0.00 0.00 0.00 0.00 0.00 0.00
0.00 0.00 0.00 0.00 0.02 0.02 0.00 0.02 0.05 0.01 0.02 0.08 0.02 0.01 0.00 0.00 0.00 0.00 0.00 0.00 0.00 0.00
0.00 0.00 0.00 0.00 0.00 0.00 0.03 0.04 0.12 0.07 0.00 0.02 0.04 0.01 0.00 0.00 0.00 0.00 0.00 0.00 0.00 0.00
0.00 0.00 0.03 0.03 0.03 0.01 0.06 0.10 0.13 0.07 0.04 0.01 0.02 0.00 0.00 0.02 0.03 0.03 0.00 0.00 0.00 0.00
0.01 0.00 0.01 0.01 0.03 0.01 0.01 0.04 0.09 0.07 0.12 0.10 0.03 0.00 0.00 0.01 0.08 0.04 0.05 0.01 0.00 0.01
0.02 0.00 0.00 0.00 0.00 0.00 0.00 0.00 0.02 0.03 0.07 0.06 0.03 0.00 0.00 0.01 0.03 0.03 0.05 0.07 0.02 0.03
0.13 0.01 0.00 0.00 0.01 0.02 0.04 0.04 0.01 0.02 0.02 0.01 0.01 0.00 0.00 0.00 0.01 0.00 0.01 0.02 0.02 0.02
0.12 0.06 0.01 0.00 0.00 0.00 0.01 0.02 0.02 0.01 0.02 0.02 0.02 0.03 0.00 0.00 0.00 0.01 0.01 0.02 0.01 0.01
0.00 0.01 0.02 0.01 0.00 0.00 0.00 0.01 0.00 0.00 0.03 0.04 0.06 0.04 0.04 0.05 0.01 0.00 0.00 0.00 0.00 0.00
0.00 0.00 0.00 0.01 0.00 0.00 0.00 0.00 0.00 0.00 0.01 0.03 0.10 0.09 0.07 0.04 0.03 0.00 0.00 0.00 0.00 0.00
0.00 0.00 0.00 0.00 0.00 0.00 0.00 0.00 0.00 0.00 0.00 0.00 0.01 0.06 0.07 0.03 0.01 0.00 0.00 0.00 0.00 0.01
0.00 0.00 0.00 0.00 0.00 0.00 0.00 0.00 0.00 0.01 0.00 0.00 0.00 0.01 0.01 0.01 0.01 0.00 0.01 0.02 0.02 0.04
0.00 0.00 0.00 0.00 0.00 0.00 0.00 0.00 0.00 0.01 0.00 0.00 0.00 0.00 0.00 0.00 0.00 0.00 0.00 0.01 0.02 0.02
MSLP
1021.24 1021.29 1021.51 1021.68 1021.86 1022.03 1022.07 1021.97 1021.86 1022.07 1022.35 1022.62 1022.94 1023.12 1023.17 1023.24 1023.33 1023.35 1023.72 1023.91 1024.10 1024.15
1021.12 1021.28 1021.30 1021.50 1021.70 1021.75 1021.84 1021.77 1021.85 1022.04 1022.25 1022.44 1022.70 1022.94 1023.15 1023.37 1023.42 1023.51 1023.65 1023.80 1023.96 1024.06
1021.01 1021.21 1021.29 1021.40 1021.59 1021.56 1021.64 1021.82 1021.98 1021.98 1022.13 1022.34 1022.40 1022.78 1022.91 1023.23 1023.32 1023.55 1023.74 1023.74 1023.83 1023.98
1021.10 1021.25 1021.39 1021.45 1021.33 1021.40 1021.48 1021.70 1021.95 1021.89 1022.05 1022.15 1022.36 1022.48 1022.76 1023.01 1023.34 1023.52 1023.63 1023.67 1023.66 1023.71
1021.00 1021.21 1021.25 1021.41 1021.31 1020.95 1021.32 1021.38 1021.49 1021.65 1021.97 1022.01 1022.17 1022.18 1022.55 1022.76 1022.97 1023.23 1023.31 1023.36 1023.45 1023.50
1021.44 1021.37 1021.23 1021.20 1021.16 1021.02 1021.19 1021.36 1021.33 1021.46 1021.88 1021.96 1022.04 1022.24 1022.33 1022.56 1022.79 1022.81 1022.99 1022.95 1023.10 1023.07
1021.71 1021.49 1021.30 1021.32 1021.34 1021.08 1021.01 1021.25 1021.29 1021.45 1021.67 1021.75 1021.90 1022.02 1022.19 1022.34 1022.47 1022.55 1022.63 1022.73 1022.61 1022.59
1021.07 1021.26 1021.43 1021.39 1021.65 1021.57 1021.36 1021.40 1021.41 1021.43 1021.46 1021.46 1021.60 1021.47 1021.76 1021.99 1022.00 1022.01 1022.00 1022.10 1022.15 1022.05
1021.13 1021.00 1021.62 1021.76 1021.87 1021.90 1021.81 1021.89 1021.79 1021.68 1021.57 1021.66 1021.67 1021.43 1021.60 1021.69 1021.70 1021.66 1021.77 1021.60 1021.34 1021.34
1021.82 1022.02 1022.12 1022.35 1022.69 1022.44 1022.31 1022.24 1022.08 1022.04 1021.90 1021.95 1021.91 1021.86 1021.68 1021.52 1021.45 1021.40 1021.35 1021.19 1021.11 1021.01
1022.68 1022.76 1022.91 1023.06 1022.95 1023.05 1022.55 1022.56 1022.40 1022.18 1022.11 1022.13 1022.09 1021.99 1021.94 1021.52 1021.22 1021.09 1020.87 1020.88 1020.78 1020.74
1023.44 1023.42 1023.46 1023.46 1023.17 1022.81 1022.63 1022.77 1022.73 1022.39 1022.11 1022.48 1022.68 1022.56 1022.18 1021.69 1021.50 1021.07 1020.74 1020.58 1020.58 1020.65
1024.03 1023.90 1023.78 1023.77 1023.63 1023.40 1023.38 1023.05 1022.83 1022.99 1022.40 1022.69 1023.13 1022.87 1022.68 1022.29 1022.40 1021.69 1021.26 1020.84 1020.64 1020.60
1024.53 1024.47 1024.42 1024.23 1024.02 1023.99 1023.86 1023.71 1023.45 1023.47 1023.22 1023.34 1022.99 1023.47 1023.11 1023.27 1023.26 1023.08 1022.29 1021.67 1021.15 1020.83
Thickness
5760 5760 5760 5760 5760 5758 5758 5760 5760 5760 5758 5757 5755 5756 5757 5757 5757 5759 5760 5761 5759 5759
5759 5759 5760 5759 5759 5760 5759 5760 5760 5759 5758 5758 5757 5756 5756 5755 5756 5756 5758 5760 5760 5760
5756 5757 5760 5759 5758 5759 5759 5759 5759 5759 5758 5757 5758 5756 5756 5755 5755 5756 5755 5757 5759 5759
5750 5752 5755 5756 5758 5758 5758 5756 5757 5757 5758 5758 5757 5755 5755 5755 5753 5755 5756 5756 5758 5759
5746 5747 5751 5752 5755 5757 5756 5757 5758 5758 5756 5757 5757 5757 5756 5755 5756 5754 5756 5758 5758 5758
5735 5740 5745 5748 5750 5753 5754 5754 5756 5757 5754 5756 5756 5756 5757 5756 5754 5756 5756 5758 5757 5758
5727 5733 5738 5741 5743 5747 5749 5750 5752 5752 5750 5752 5753 5754 5754 5755 5755 5755 5755 5755 5758 5759
5727 5729 5732 5735 5734 5737 5741 5744 5746 5746 5747 5749 5750 5751 5751 5754 5757 5759 5759 5758 5758 5758
5722 5725 5723 5725 5727 5728 5731 5733 5737 5740 5742 5743 5745 5747 5749 5750 5754 5756 5756 5757 5760 5760
5713 5712 5711 5712 5711 5715 5719 5722 5727 5730 5733 5735 5737 5739 5743 5747 5750 5752 5753 5755 5758 5760
5700 5700 5699 5700 5701 5701 5709 5712 5716 5721 5724 5725 5726 5730 5735 5741 5746 5752 5753 5753 5755 5756
5688 5689 5690 5691 5695 5700 5701 5703 5705 5711 5716 5714 5715 5721 5727 5732 5738 5744 5747 5750 5751 5752
5680 5682 5685 5687 5688 5691 5689 5692 5695 5698 5705 5704 5704 5710 5714 5718 5722 5728 5734 5739 5743 5746
5669 5672 5674 5677 5681 5681 5682 5683 5682 5683 5688 5690 5696 5696 5700 5701 5704 5707 5715 5722 5729 5736